Showing default

LEMUR-2 DELOITTE-3, 68471

Orbit data source: Space-Track

LEMUR-2 DELOITTE-3, 68471 is an American payload satellite in SSO that was launched on Mon, 30 Mar 2026 UTC via an FALCON 9 launch vehicle from the Air Force Western Test Range (AFWTR). Payload-class satellites include a variety of spacecraft equipped with specific instruments for various scientific and technological missions. These include communications satellites like Starlink; space stations such as the ISS; scientific satellites like the Hubble; Earth observation satellites from companies like Planet Labs, Umbra, and HawkEye 360; GPS; miniature CubeSats for education and research; and military/defense satellites.

Loading next visibility...
Identifier
68471, 2026-067BH
Orbit
SSO
Country
Flag of USUS
Related business
Manufacturer
Spire/Glasgow
Mission
Operational spacecraft
Bus & Motor
CUBESAT 6U, Unknown motor
Mass
10 kg wet, 10 kg dry
Launch date (UTC)
2026-03-30 (3 months ago)
Launch vehicle
FALCON 9
Launch site
Air Force Western Test Range (AFWTR)
Object type
Payload
Rocket body
Debris
Shape & HBR
Unknown shape, 0.2 m
Radar Cross Section
Medium (>0.1 m² and <1 m²)

Expand to show TLE details & history
Last TLE update: 10 hours ago

TLE from 10 hours ago
0 LEMUR-2 DELOITTE-3
1 68471U 26067BH  26171.43123884  .00001875  00000-0  19239-3 0  9995
2 68471  97.7579 129.5495 0005292  56.8162 303.3564 14.91594119 12217
Epoch: 2026-06-20T10:20Z
TLE epoch observation values (Epoch: 2026-06-20T10:20:59.035Z)
Latitude
Longitude
65.65756°
Altitude
593.978 km
Speed
7.564 km/s
True Right ascension
08h 38m 11s
True Declination
0° 00' 00"
Sunlit
Object was in daylight at epoch
Visualization orbit readout
Latitude
Unknown
Longitude
Unknown
Altitude
Unknown
Speed
Unknown
Apparent Right ascension
Unknown
Apparent Declination
Unknown
Sunlit
N/A
Visualization observer readout
Local Sidereal Time
07:17:01
Azimuth
Unknown
Elevation
Unknown
Doppler factor
Unknown
Orbital elements
Apogee altitude
593.671 km
Perigee altitude
586.296 km
Semi-major axis
6,968.12 km
Eccentricity
0.00053
Inclination
97.7579°
RAAN
129.5495°
Arg. of periapsis
56.8162°
True anomaly
303.30573°
Mean anomaly
303.3564°
Eccentric anomaly
303.33107°
Mean motion
3.73138 °/min
Orbital period
96.48 mins
BSTAR
0.00019239
Loading maneuver chart data...
Computing Atmospheric mass density...
Loading historical data...
Loading historical data...
Loading historical data...
Loading historical data...
Loading historical data...
Loading historical data...
Loading historical data...

Documentation

Showing up to 5 results
|